"2009-10-04 00:00:00",1296286,4.574,17.37,4.736,0.748,11.8,104.5701,10.97,12.16,25.93,0,110.1,13.35,11.76,339.4
"2009-10-04 00:00:30",1296287,6.004,23.83,6.839,1.237,14,104.5701,10.97,12.02,25.77,0,110.2,13.35,11.76,345.8
"2009-10-04 00:01:00",1296288,4.643,15.75,4.312,0.872,11,104.5701,10.97,12.11,25.92,0,110.2,13.34,11.76,337.8
"2009-10-04 00:01:30",1296289,5.68,21.51,6.903,1.363,13.23,104.5701,10.97,12.11,25.92,0,110.2,13.34,11.76,343.5
"2009-10-04 00:02:00",1296290,4.62,16.95,5.792,1.032,11.46,104.5701,10.97,12.14,25.95,0,110.2,13.34,11.76,339.0
"2009-10-04 00:02:30",1296291,5.096,18.24,6.089,1.053,11.86,104.5701,10.97,12.02,25.76,0,110.2,13.34,11.76,340.2
"2009-10-04 00:03:00",1296292,4.276,15.12,5.996,1.327,11.87,104.5692,10.97,12.11,25.85,0,110.2,13.34,11.76,337.1
"2009-10-04 00:03:30",1296293,4.355,14.6,6.714,1.238,11.54,104.565,10.96,11.98,25.69,0,110.2,13.34,11.75,336.6
"2009-10-04 00:04:00",1296294,5.132,19.07,7.305,1.411,13.22,104.5579,10.94,12.16,25.8,0,110.2,13.34,11.73,341.1
"2009-10-04 00:04:30",1296295,3.581,12.5,3.288,0.428,11.23,104.552,10.93,12.12,25.71,0,110.2,13.38,11.72,334.5
"2009-10-04 00:05:00",1296296,4.466,16.35,7.139,1.242,12.15,104.541,10.9,12.06,25.64,0,110.2,13.34,11.69,338.4
"2009-10-04 00:05:30",1296297,5.593,21.96,6.429,1.175,14.22,104.5376,10.89,12.24,25.74,0,110.2,13.34,11.68,344.0
"2009-10-04 00:06:00",1296298,4.599,18.13,5.915,1.032,11.15,104.5365,10.89,12.02,25.55,0,110.2,13.35,11.68,340.1
"2009-10-04 00:06:30",1296299,4.557,17.63,3.965,0.891,10.65,104.5368,10.89,11.96,25.49,0,110.2,13.35,11.68,339.6
"2009-10-04 00:07:00",1296300,5.41,22.55,6.305,1.381,12.55,104.5368,10.89,12.07,25.62,0,110.2,13.35,11.68,344.5
"2009-10-04 00:07:30",1296301,4.425,16.36,1.258,0.235,10.65,104.5371,10.89,11.95,25.44,0,110.2,13.39,11.68,338.4
"2009-10-04 00:08:00",1296302,5.518,21.55,7.175,1.48,13.13,104.5377,10.89,12.07,25.52,0,110.2,13.35,11.68,343.5
"2009-10-04 00:08:30",1296303,4.767,18.24,7.366,1.231,12.68,104.5401,10.9,12.16,25.68,0,110.2,13.35,11.69,340.2
"2009-10-04 00:09:00",1296304,4.997,16.18,7.557,1.41,12.13,104.5412,10.9,11.99,25.75,0,110.2,13.35,11.69,338.2
"2009-10-04 00:09:30",1296305,4.619,14.56,6.963,1.294,12.75,104.5404,10.9,12.19,26.1,0,110.2,13.35,11.69,336.6
"2009-10-04 00:10:00",1296306,5.281,19.97,7.128,1.301,13.05,104.543,10.9,12.05,26.13,0,110.2,13.35,11.69,342.0
"2009-10-04 00:10:30",1296307,4.851,17.81,7.569,1.454,11.89,104.5413,10.9,11.99,25.97,0,110.2,13.35,11.69,339.8
"2009-10-04 00:11:00",1296308,4.966,18.79,7.137,1.389,12.1,104.5397,10.89,12.01,25.74,0,110.2,13.35,11.68,340.8
"2009-10-04 00:11:30",1296309,3.857,13.41,1.499,0.151,10.41,104.5371,10.89,11.92,25.44,0,110.2,13.39,11.68,335.4
"2009-10-04 00:12:00",1296310,4.582,17.4,5.995,1.01,11.64,104.5335,10.88,12.09,25.54,0,110.2,13.35,11.67,339.4
"2009-10-04 00:12:30",1296311,6.077,25.13,6.087,1.207,14.89,104.5305,10.87,12.16,25.58,0,110.2,13.35,11.66,347.1
"2009-10-04 00:13:00",1296312,5.507,20.8,8.39,1.336,13.68,104.5224,10.85,12.05,25.42,0,110.2,13.35,11.64,342.8
"2009-10-04 00:13:30",1296313,3.321,9.06,2.021,0.247,10.56,104.513,10.83,11.9,25.31,0,110.2,13.39,11.62,331.1
"2009-10-04 00:14:00",1296314,4.019,12.06,5.94,1.155,11.95,104.5171,10.84,12.09,25.52,0,110.2,13.35,11.63,334.1
"2009-10-04 00:14:30",1296315,4.836,15.17,7.088,1.265,13.86,104.5195,10.84,12.16,25.66,0,110.2,13.36,11.63,337.2
"2009-10-04 00:15:00",1296316,4.095,10.88,5.795,1.314,11.69,104.5183,10.84,11.91,25.5,0,110.2,13.36,11.63,332.9
"2009-10-04 00:15:30",1296317,3.18,5.868,2.089,0.216,10.11,104.5192,10.84,11.87,25.5,0,110.2,13.38,11.63,327.9
"2009-10-04 00:16:00",1296318,3.019,7.514,2.162,0.169,10.34,104.5218,10.85,11.88,25.52,0,110.2,13.39,11.64,329.5
"2009-10-04 00:16:30",1296319,4.313,13.6,5.937,1.378,13.47,104.5236,10.85,12.08,25.71,0,110.2,13.36,11.64,335.6
"2009-10-04 00:17:00",1296320,4.596,12.66,7.791,1.296,13.74,104.5245,10.86,12.13,25.68,0,110.2,13.36,11.65,334.7
"2009-10-04 00:17:30",1296321,3.75,10.74,4.925,1.071,11.72,104.5277,10.86,11.89,25.4,0,110.2,13.36,11.65,332.7
"2009-10-04 00:18:00",1296322,4.149,14.06,7.26,1.144,12.25,104.528,10.86,11.91,25.44,0,110.2,13.36,11.65,336.1
"2009-10-04 00:18:30",1296323,4.091,13.86,6.648,1.247,11.65,104.5252,10.86,11.99,25.54,0,110.2,13.35,11.65,335.9
"2009-10-04 00:19:00",1296324,5.2,19.24,6.394,1.126,14.19,104.5221,10.85,12.03,25.52,0,110.2,13.36,11.64,341.2
"2009-10-04 00:19:30",1296325,3.404,10.7,2.265,0.323,10.37,104.5242,10.85,11.84,25.31,0,110.2,13.36,11.64,332.7
"2009-10-04 00:20:00",1296326,3.507,12.62,2.715,0.55,10.48,104.524,10.85,11.84,25.29,0,110.2,13.36,11.64,334.6
"2009-10-04 00:20:30",1296327,3.928,14.49,3.786,0.725,11.15,104.5195,10.84,11.97,25.41,0,110.2,13.36,11.63,336.5
"2009-10-04 00:21:00",1296328,5.339,22.22,6.598,1.266,14.21,104.5095,10.82,12.1,25.54,0,110.2,13.36,11.61,344.2
"2009-10-04 00:21:30",1296329,4.734,17.89,6.449,1.276,13.31,104.5063,10.81,11.92,25.36,0,110.2,13.36,11.60,339.9
"2009-10-04 00:22:00",1296330,3.579,13.43,4.02,0.501,11.17,104.5027,10.8,11.95,25.38,0,110.2,13.39,11.59,335.4
"2009-10-04 00:22:30",1296331,4.483,17.72,6.137,1.099,11.94,104.503,10.8,11.88,25.32,0,110.2,13.36,11.59,339.7
"2009-10-04 00:23:00",1296332,4.399,17.4,5.816,1.084,11.7,104.5021,10.8,11.94,25.33,0,110.2,13.36,11.59,339.4
"2009-10-04 00:23:30",1296333,3.931,16.3,5.506,0.959,11.52,104.5027,10.8,11.98,25.41,0,110.2,13.36,11.59,338.3
"2009-10-04 00:24:00",1296334,5.474,23.54,6.573,1.34,13.81,104.5027,10.8,11.9,25.32,0,110.2,13.36,11.59,345.5
"2009-10-04 00:24:30",1296335,4.02,15.61,4.346,0.929,11.4,104.5039,10.8,11.92,25.32,0,110.2,13.36,11.59,337.6
"2009-10-04 00:25:00",1296336,5.013,20.11,8.56,1.479,13.61,104.5039,10.8,11.97,25.43,0,110.2,13.36,11.59,342.1
"2009-10-04 00:25:30",1296337,4.894,20.03,6.031,1.212,13.16,104.5039,10.8,11.86,25.32,0,110.2,13.36,11.59,342.0
"2009-10-04 00:26:00",1296338,4.167,17.29,5.484,1.012,11.89,104.5039,10.8,12.03,25.42,0,110.2,13.36,11.59,339.3
"2009-10-04 00:26:30",1296339,4.494,18.11,6.824,1.335,11.49,104.5039,10.8,11.87,25.24,0,110.2,13.36,11.59,340.1
"2009-10-04 00:27:00",1296340,3.778,12.78,3.896,0.766,11.08,104.5039,10.8,11.89,25.29,0,110.2,13.36,11.59,334.8
"2009-10-04 00:27:30",1296341,3.7,12.59,2.014,0.249,10.4,104.5039,10.8,11.79,25.2,0,110.2,13.4,11.59,334.6
"2009-10-04 00:28:00",1296342,5.233,19.26,7.722,1.339,13.42,104.5039,10.8,11.98,25.39,0,110.2,13.36,11.59,341.3
"2009-10-04 00:28:30",1296343,5.411,21.4,6.787,1.147,14.29,104.5039,10.8,12,25.37,0,110.2,13.37,11.59,343.4
"2009-10-04 00:29:00",1296344,4.16,16.17,6.612,1.102,12,104.5039,10.8,11.88,25.27,0,110.2,13.36,11.59,338.2
"2009-10-04 00:29:30",1296345,4.305,15.78,6.816,1.24,11.75,104.5039,10.8,11.82,25.25,0,110.2,13.36,11.59,337.8
"2009-10-04 00:30:00",1296346,5.43,21.11,7.171,1.457,13.28,104.5039,10.8,11.99,25.41,0,110.2,13.37,11.59,343.1
"2009-10-04 00:30:30",1296347,5.127,20.64,7.537,1.336,12.3,104.5039,10.8,11.94,25.36,0,110.2,13.37,11.59,342.6
"2009-10-04 00:31:00",1296348,4.602,17.38,1.303,0.282,10.28,104.5039,10.8,11.78,25.2,0,110.2,13.37,11.59,339.4
"2009-10-04 00:31:30",1296349,5.952,22.45,6.314,1.336,11.64,104.5036,10.8,11.79,25.17,0,110.2,13.37,11.59,344.5
"2009-10-04 00:32:00",1296350,6.677,25.98,6.968,1.337,13.57,104.5016,10.8,11.97,25.29,0,110.2,13.37,11.59,348.0
"2009-10-04 00:32:30",1296351,6.179,23.6,6.334,1.312,12.89,104.5011,10.8,11.97,25.31,0,110.2,13.37,11.59,345.6
"2009-10-04 00:33:00",1296352,5.777,21.35,5.35,1.014,11.75,104.5016,10.8,11.83,25.16,0,110.2,13.37,11.59,343.4
"2009-10-04 00:33:30",1296353,6.673,27.11,6.59,1.361,13.91,104.4991,10.79,12.02,25.27,0,110.2,13.36,11.58,349.1
"2009-10-04 00:34:00",1296354,6.487,26.07,6.11,1.234,14.03,104.4994,10.79,11.98,25.26,0,110.2,13.36,11.58,348.1
"2009-10-04 00:34:30",1296355,5.001,18.76,2.929,0.731,10.57,104.4966,10.78,11.77,25.09,0,110.2,13.36,11.57,340.8
"2009-10-04 00:35:00",1296356,4.971,18.48,0.936,0.189,10.45,104.4983,10.79,11.77,25.06,0,110.2,13.39,11.58,340.5
"2009-10-04 00:35:30",1296357,6.217,25.38,6.722,1.317,13,104.4966,10.78,11.92,25.12,0,110.2,13.36,11.57,347.4
"2009-10-04 00:36:00",1296358,5.108,19.56,2.865,0.48,11.26,104.496,10.78,11.92,25.15,0,110.2,13.36,11.57,341.6
"2009-10-04 00:36:30",1296359,6.281,25.02,6.267,1.102,13.53,104.4963,10.78,11.86,25.11,0,110.2,13.36,11.57,347.0
"2009-10-04 00:37:00",1296360,6.598,27.33,7.291,1.293,14.05,104.4971,10.79,12.03,25.3,0,110.2,13.36,11.58,349.3
"2009-10-04 00:37:30",1296361,7.235,30.16,5.804,1.205,14.82,104.498,10.79,12.04,25.35,0,110.2,13.36,11.58,352.2
"2009-10-04 00:38:00",1296362,6.022,24.55,5.558,1.262,11.99,104.4988,10.79,11.82,25.24,0,110.2,13.36,11.58,346.5
"2009-10-04 00:38:30",1296363,5.824,25.42,5.216,1.207,11.94,104.4997,10.79,11.9,25.54,0,110.2,13.36,11.58,347.4
"2009-10-04 00:39:00",1296364,5.649,24.84,4.647,1.077,11.62,104.4983,10.79,11.86,25.48,0,110.2,13.36,11.58,346.8
"2009-10-04 00:39:30",1296365,6.397,27.48,5.19,1.276,12.71,104.5016,10.8,11.84,25.45,0,110.2,13.36,11.59,349.5
"2009-10-04 00:40:00",1296366,6.469,32.78,7.158,1.435,13.53,104.5019,10.8,11.88,25.57,0,110.2,13.37,11.59,354.8
"2009-10-04 00:40:30",1296367,6.585,29.45,6.491,1.336,13.86,104.5025,10.8,11.97,25.71,0,110.2,13.37,11.59,351.5
"2009-10-04 00:41:00",1296368,6.929,34.15,6.524,1.154,15.13,104.5033,10.8,11.99,25.71,0,110.2,13.37,11.59,356.1
"2009-10-04 00:41:30",1296369,5.962,25.29,5.453,1.255,12.4,104.5039,10.8,11.93,25.63,0,110.2,13.37,11.59,347.3
"2009-10-04 00:42:00",1296370,6.299,28.04,7.044,1.194,12.16,104.5036,10.8,11.82,25.5,0,110.2,13.37,11.59,350.0
"2009-10-04 00:42:30",1296371,5.828,27.81,7.259,1.145,11.72,104.5039,10.8,11.93,25.53,0,110.2,13.37,11.59,349.8
"2009-10-04 00:43:00",1296372,5.679,27,5.238,1.31,11.64,104.5039,10.8,11.79,25.33,0,110.2,13.37,11.59,349.0
"2009-10-04 00:43:30",1296373,5.519,23.19,1.843,0.418,10.92,104.5039,10.8,11.78,25.31,0,110.2,13.41,11.59,345.2
"2009-10-04 00:44:00",1296374,6.574,26.43,6.677,1.271,13.16,104.5039,10.8,11.96,25.48,0,110.2,13.37,11.59,348.4
"2009-10-04 00:44:30",1296375,7.681,35.47,4.657,0.912,15.62,104.5039,10.8,12.09,25.54,0,110.2,13.37,11.59,357.5
"2009-10-04 00:45:00",1296376,6.836,33.37,7.433,1.31,13.6,104.5039,10.8,11.92,25.48,0,110.2,13.37,11.59,355.4
"2009-10-04 00:45:30",1296377,5.856,22.33,2.28,0.521,10.75,104.5039,10.8,11.8,25.3,0,110.2,13.37,11.59,344.3
"2009-10-04 00:46:00",1296378,6.988,27.19,7.186,1.448,12.61,104.5039,10.8,11.93,25.29,0,110.2,13.37,11.59,349.2
"2009-10-04 00:46:30",1296379,5.424,23.91,2.33,0.362,10.58,104.5039,10.8,11.85,25.31,0,110.2,13.4,11.59,345.9
"2009-10-04 00:47:00",1296380,5.491,24.25,2.639,0.276,10.75,104.5039,10.8,11.79,25.36,0,110.2,13.4,11.59,346.2
"2009-10-04 00:47:30",1296381,7.283,28.26,7.298,1.41,13.62,104.5039,10.8,11.96,25.37,0,110.2,13.37,11.59,350.3
"2009-10-04 00:48:00",1296382,7.23,32.57,6.493,1.244,15.04,104.5039,10.8,12.11,25.43,0,110.2,13.37,11.59,354.6
"2009-10-04 00:48:30",1296383,7.012,28.25,8.15,1.264,13.59,104.5039,10.8,12.03,25.36,0,110.2,13.37,11.59,350.2
"2009-10-04 00:49:00",1296384,7.047,32.68,6.6,1.411,14.08,104.5039,10.8,12.03,25.55,0,110.2,13.37,11.59,354.7
"2009-10-04 00:49:30",1296385,6.614,29.53,7.384,1.279,12.44,104.5039,10.8,11.84,25.6,0,110.2,13.37,11.59,351.5
"2009-10-04 00:50:00",1296386,5.528,25.28,3.558,0.524,11,104.5039,10.8,11.92,25.68,0,110.2,13.4,11.59,347.3
"2009-10-04 00:50:30",1296387,5.736,21.28,1.489,0.225,10.72,104.5039,10.8,11.81,25.44,0,110.2,13.4,11.59,343.3
"2009-10-04 00:51:00",1296388,6.425,24.71,5.227,1.212,12.29,104.5039,10.8,11.98,25.37,0,110.2,13.37,11.59,346.7
"2009-10-04 00:51:30",1296389,7.794,32.3,6.593,1.106,15.21,104.5039,10.8,12.06,25.33,0,110.2,13.36,11.59,354.3
"2009-10-04 00:52:00",1296390,7.427,35.39,6.532,1.25,14.93,104.5039,10.8,12.02,25.58,0,110.2,13.36,11.59,357.4
"2009-10-04 00:52:30",1296391,7.271,31.16,6.532,1.55,13.76,104.5039,10.8,12.06,25.58,0,110.2,13.36,11.59,353.2
"2009-10-04 00:53:00",1296392,6.353,26.71,5.138,1.107,11.34,104.5039,10.8,11.91,25.32,0,110.2,13.36,11.59,348.7
"2009-10-04 00:53:30",1296393,6.102,27.23,5.188,1.059,11.46,104.5039,10.8,11.87,25.32,0,110.2,13.36,11.59,349.2
"2009-10-04 00:54:00",1296394,6.082,26.44,5.044,0.934,11.27,104.5039,10.8,11.8,25.3,0,110.2,13.36,11.59,348.4
"2009-10-04 00:54:30",1296395,6.349,26.79,5.864,0.983,11.95,104.5039,10.8,11.95,25.39,0,110.2,13.36,11.59,348.8
"2009-10-04 00:55:00",1296396,7.769,34.16,6.909,1.28,14.43,104.5039,10.8,11.97,25.48,0,110.2,13.37,11.59,356.2
"2009-10-04 00:55:30",1296397,7.524,32.07,6.947,1.149,14.64,104.5039,10.8,12.09,25.48,0,110.2,13.37,11.59,354.1
"2009-10-04 00:56:00",1296398,8.16,33.99,5.322,1.144,15.08,104.5039,10.8,12.08,25.55,0,110.2,13.37,11.59,356.0
"2009-10-04 00:56:30",1296399,7.029,26.35,5.892,1.271,12.23,104.5039,10.8,11.9,25.25,0,110.2,13.37,11.59,348.4
"2009-10-04 00:57:00",1296400,6.124,22.32,1.067,0.202,10.51,104.5039,10.8,11.85,25.29,0,110.2,13.41,11.59,344.3
"2009-10-04 00:57:30",1296401,7.03,28.28,8.12,1.075,12.49,104.5039,10.8,11.91,25.23,0,110.2,13.37,11.59,350.3
"2009-10-04 00:58:00",1296402,6.755,25.19,5.544,1.193,12.29,104.5039,10.8,11.94,25.14,0,110.2,13.37,11.59,347.2
"2009-10-04 00:58:30",1296403,6.738,23.36,5.9,1.066,11.99,104.5039,10.8,11.83,24.92,0,110.2,13.37,11.59,345.4
"2009-10-04 00:59:00",1296404,8.01,30.2,6.402,1.256,15,104.5039,10.8,12.11,25.16,0,110.2,13.37,11.59,352.2
"2009-10-04 00:59:30",1296405,8.52,31.33,5.146,0.854,15.43,104.5039,10.8,12.08,25.07,0,110.2,13.37,11.59,353.3
"2009-10-04 01:00:00",1296406,7.872,29.29,7.192,1.317,14,104.5039,10.8,12,25,0,110.2,13.37,11.59,351.3
"2009-10-04 01:00:30",1296407,6.184,20.8,1.111,0.204,10.55,104.5039,10.8,11.82,24.92,0,110.2,13.41,11.59,342.8
"2009-10-04 01:01:00",1296408,7.036,25.29,6.731,1.245,12.41,104.5039,10.8,11.92,25.07,0,110.2,13.37,11.59,347.3
"2009-10-04 01:01:30",1296409,6.632,21.48,4.437,0.772,11.51,104.5039,10.8,11.94,25.2,0,110.2,13.37,11.59,343.5
"2009-10-04 01:02:00",1296410,6.634,22.14,5.05,0.961,11.64,104.5039,10.8,11.85,25.03,0,110.2,13.37,11.59,344.1
"2009-10-04 01:02:30",1296411,7.259,25.5,6.688,1.314,13.18,104.5039,10.8,12.04,25.17,0,110.2,13.37,11.59,347.5
"2009-10-04 01:03:00",1296412,8.69,31.92,4.387,0.9,15.95,104.5039,10.8,12.15,25.32,0,110.2,13.37,11.59,353.9
"2009-10-04 01:03:30",1296413,7.821,28.27,6.569,1.293,14.24,104.5039,10.8,12.04,25.13,0,110.2,13.37,11.59,350.3
"2009-10-04 01:04:00",1296414,6.777,22.05,5.574,1.114,11.53,104.5039,10.8,11.82,24.76,0,110.2,13.37,11.59,344.0
"2009-10-04 01:04:30",1296415,6.869,23.71,6.136,1.236,12.32,104.5039,10.8,11.96,24.85,0,110.2,13.37,11.59,345.7
"2009-10-04 01:05:00",1296416,6.417,20.15,4.012,0.841,11,104.5039,10.8,11.82,24.94,0,110.2,13.37,11.59,342.1
"2009-10-04 01:05:30",1296417,6.122,19.01,0.734,0.222,10.84,104.5039,10.8,11.82,25.15,0,110.2,13.41,11.59,341.0
"2009-10-04 01:06:00",1296418,7.247,24.75,7.212,1.299,13.27,104.5039,10.8,12.01,25.43,0,110.2,13.37,11.59,346.8
"2009-10-04 01:06:30",1296419,8.4,29.95,5.524,0.949,15.81,104.5039,10.8,12.13,25.52,0,110.2,13.37,11.59,352.0
"2009-10-04 01:07:00",1296420,7.839,29.05,6.105,1.222,14.59,104.5039,10.8,12.02,25.61,0,110.2,13.37,11.59,351.0
"2009-10-04 01:07:30",1296421,7.709,27.72,6.377,1.253,13.38,104.5039,10.8,11.97,25.56,0,110.2,13.37,11.59,349.7
"2009-10-04 01:08:00",1296422,6.45,21.6,5.042,0.924,11.54,104.5039,10.8,11.95,25.6,0,110.2,13.36,11.59,343.6
"2009-10-04 01:08:30",1296423,6.693,21.92,5.076,1.09,11.32,104.5039,10.8,11.82,25.45,0,110.2,13.36,11.59,343.9
"2009-10-04 01:09:00",1296424,6.025,19.26,0.879,0.175,10.68,104.5039,10.8,11.83,25.45,0,110.2,13.4,11.59,341.3
"2009-10-04 01:09:30",1296425,6.57,22.43,5.794,1.126,12.44,104.5039,10.8,11.98,25.62,0,110.2,13.37,11.59,344.4
"2009-10-04 01:10:00",1296426,8.28,30.42,4.988,0.966,15.53,104.5039,10.8,12.07,25.72,0,110.2,13.37,11.59,352.4
"2009-10-04 01:10:30",1296427,7.694,28.48,6.125,1.257,14.9,104.5039,10.8,12.08,25.69,0,110.2,13.37,11.59,350.5
"2009-10-04 01:11:00",1296428,7.442,27.4,6.359,1.279,14.27,104.5039,10.8,12.05,25.67,0,110.2,13.36,11.59,349.4
"2009-10-04 01:11:30",1296429,6.573,22.77,5.699,1.13,11.67,104.5039,10.8,11.88,25.45,0,110.2,13.37,11.59,344.8
"2009-10-04 01:12:00",1296430,5.88,19.65,2.636,0.498,10.74,104.5039,10.8,11.84,25.4,0,110.2,13.4,11.59,341.6
"2009-10-04 01:12:30",1296431,5.879,18.97,0.827,0.186,10.57,104.5039,10.8,11.81,25.37,0,110.2,13.41,11.59,341.0
"2009-10-04 01:13:00",1296432,6.939,24.49,6.786,1.33,12.88,104.5039,10.8,11.85,25.47,0,110.2,13.37,11.59,346.5
"2009-10-04 01:13:30",1296433,7.538,27.93,6.095,1.347,14.64,104.5036,10.8,12.09,25.71,0,110.2,13.37,11.59,349.9
"2009-10-04 01:14:00",1296434,7.716,28.86,5.965,1.153,15.14,104.5039,10.8,12.06,25.74,0,110.2,13.37,11.59,350.9
"2009-10-04 01:14:30",1296435,7.66,29.07,5.892,1.15,14.94,104.5028,10.8,12.06,25.68,0,110.2,13.37,11.59,351.1
"2009-10-04 01:15:00",1296436,6.958,24.88,6.72,1.268,12.62,104.5028,10.8,11.93,25.53,0,110.2,13.37,11.59,346.9
"2009-10-04 01:15:30",1296437,5.789,19.09,0.789,0.176,10.33,104.5025,10.8,11.81,25.45,0,110.2,13.41,11.59,341.1
"2009-10-04 01:16:00",1296438,6.281,21.07,5.122,1.04,11.16,104.5025,10.8,11.8,25.38,0,110.2,13.37,11.59,343.1
"2009-10-04 01:16:30",1296439,6.252,21.21,5.304,0.997,12.2,104.4991,10.79,11.95,25.57,0,110.2,13.37,11.58,343.2
"2009-10-04 01:17:00",1296440,6.537,21.61,5.631,1.112,12.18,104.4966,10.78,11.83,25.54,0,110.2,13.37,11.57,343.6
"2009-10-04 01:17:30",1296441,7.647,27.22,6.786,1.21,14.52,104.4957,10.78,12.06,25.76,0,110.2,13.38,11.57,349.2
"2009-10-04 01:18:00",1296442,7.858,29.49,5.203,1.024,15.37,104.4957,10.78,12.09,25.85,0,110.2,13.37,11.57,351.5
"2009-10-04 01:18:30",1296443,6.339,23.18,6.57,1.232,12.59,104.4957,10.78,11.99,25.71,0,110.2,13.37,11.57,345.2
"2009-10-04 01:19:00",1296444,5.515,18.57,0.863,0.222,10.34,104.4957,10.78,11.8,25.46,0,110.2,13.41,11.57,340.6
"2009-10-04 01:19:30",1296445,5.4,18.38,0.716,0.194,10.4,104.4951,10.78,11.88,25.46,0,110.2,13.41,11.57,340.4
"2009-10-04 01:20:00",1296446,6.631,24.65,6.86,1.394,12.96,104.4951,10.78,11.9,25.4,0,110.2,13.37,11.57,346.6
"2009-10-04 01:20:30",1296447,5.876,21.36,5.254,0.998,12.27,104.4943,10.78,11.96,25.45,0,110.2,13.38,11.57,343.4
"2009-10-04 01:21:00",1296448,5.97,21.6,6.146,1.188,12.44,104.4951,10.78,11.86,25.3,0,110.2,13.38,11.57,343.6
"2009-10-04 01:21:30",1296449,7.536,30.61,4.657,1.036,15.45,104.4929,10.77,12.09,25.55,0,110.2,13.38,11.56,352.6
"2009-10-04 01:22:00",1296450,6.958,27.01,6.285,1.263,14.36,104.4926,10.77,12.07,25.49,0,110.2,13.38,11.56,349.0
"2009-10-04 01:22:30",1296451,5.615,20.93,6.169,1.174,11.88,104.4929,10.77,11.89,25.29,0,110.2,13.37,11.56,342.9
"2009-10-04 01:23:00",1296452,5.321,18.47,0.826,0.167,10.42,104.4929,10.77,11.8,25.2,0,110.2,13.41,11.56,340.5
"2009-10-04 01:23:30",1296453,6.116,23.33,6.63,1.352,12.42,104.4915,10.77,11.92,25.32,0,110.2,13.37,11.56,345.3
"2009-10-04 01:24:00",1296454,4.469,17.32,2.285,0.334,11.12,104.4909,10.77,11.88,25.29,0,110.2,13.41,11.56,339.3
"2009-10-04 01:24:30",1296455,4.771,17.52,1.498,0.388,10.92,104.4912,10.77,11.78,25.17,0,110.2,13.41,11.56,339.5
"2009-10-04 01:25:00",1296456,5.345,20.64,6.304,1.187,12.73,104.4886,10.76,11.86,25.23,0,110.2,13.37,11.55,342.6
"2009-10-04 01:25:30",1296457,7.099,29.62,4.256,0.86,16.03,104.4881,10.76,12.11,25.44,0,110.2,13.37,11.55,351.6
"2009-10-04 01:26:00",1296458,7.101,28.74,5.292,0.815,15.9,104.4872,10.76,12.02,25.36,0,110.2,13.37,11.55,350.7
"2009-10-04 01:26:30",1296459,4.799,17.85,2.761,0.779,10.77,104.4909,10.77,11.79,25.27,0,110.2,13.37,11.56,339.9
"2009-10-04 01:27:00",1296460,5.491,21.83,7.763,1.696,12.65,104.4895,10.77,11.92,25.38,0,110.2,13.37,11.56,343.8
"2009-10-04 01:27:30",1296461,4.98,18.96,6.046,0.974,11.68,104.4895,10.77,11.93,25.33,0,110.2,13.37,11.56,341.0
"2009-10-04 01:28:00",1296462,4.294,16.03,2.17,0.457,10.69,104.4915,10.77,11.79,25.1,0,110.2,13.41,11.56,338.0
"2009-10-04 01:28:30",1296463,4.006,15.96,3.168,0.657,11.14,104.4926,10.77,11.8,24.69,0,110.2,13.38,11.56,338.0
"2009-10-04 01:29:00",1296464,4.619,18.37,5.62,1.058,12.02,104.4937,10.78,11.88,24.9,0,110.2,13.38,11.57,340.4
"2009-10-04 01:29:30",1296465,6.273,27.1,4.728,0.895,15.8,104.4929,10.77,12.11,25.25,0,110.2,13.38,11.56,349.1
"2009-10-04 01:30:00",1296466,6.439,27.01,5.415,1.138,14.97,104.4949,10.78,12.05,25.2,0,110.2,13.38,11.57,349.0
"2009-10-04 01:30:30",1296467,5.845,22.52,6.763,1.186,12.97,104.496,10.78,12.02,25.21,0,110.2,13.38,11.57,344.5
"2009-10-04 01:31:00",1296468,5.635,21.52,6.111,1.339,11.61,104.4963,10.78,11.85,25.14,0,110.2,13.38,11.57,343.5
"2009-10-04 01:31:30",1296469,4.406,17.24,1.3,0.269,10.53,104.4966,10.78,11.84,25.05,0,110.2,13.41,11.57,339.2
"2009-10-04 01:32:00",1296470,4.694,17.95,1.196,0.371,10.59,104.4966,10.78,11.8,24.97,0,110.2,13.41,11.57,340.0
"2009-10-04 01:32:30",1296471,4.859,19.56,5.622,1.07,12.28,104.4974,10.79,11.96,25.1,0,110.2,13.38,11.58,341.6
"2009-10-04 01:33:00",1296472,4.671,18.61,5.477,1.209,12.11,104.4977,10.79,11.89,25,0,110.2,13.38,11.58,340.6
"2009-10-04 01:33:30",1296473,5.357,22.08,6.609,1.313,13.32,104.4977,10.79,11.94,25.04,0,110.2,13.38,11.58,344.1
"2009-10-04 01:34:00",1296474,7.317,28.59,5.665,1.093,15.1,104.4994,10.79,12.05,25.15,0,110.2,13.38,11.58,350.6
"2009-10-04 01:34:30",1296475,6.955,26.37,6.183,1.123,14.2,104.5025,10.8,12.08,25.2,0,110.2,13.38,11.59,348.4
"2009-10-04 01:35:00",1296476,6.648,23.89,6.658,1.258,12.56,104.5008,10.79,11.88,25.03,0,110.2,13.38,11.58,345.9
"2009-10-04 01:35:30",1296477,5.955,19.33,0.815,0.115,10.47,104.5025,10.8,11.81,25.05,0,110.2,13.41,11.59,341.3
"2009-10-04 01:36:00",1296478,6.786,24.82,6.759,1.26,12.78,104.503,10.8,11.97,25.32,0,110.2,13.38,11.59,346.8
"2009-10-04 01:36:30",1296479,6.333,21.54,4.97,0.941,12.05,104.5036,10.8,11.95,25.34,0,110.1,13.38,11.59,343.5
"2009-10-04 01:37:00",1296480,6.79,24.41,6.798,1.283,13.19,104.5039,10.8,11.97,25.49,0,110.2,13.38,11.59,346.4
"2009-10-04 01:37:30",1296481,8.2,31.3,3.821,0.988,15.9,104.5036,10.8,12.09,25.61,0,110.2,13.38,11.59,353.3
"2009-10-04 01:38:00",1296482,7.82,29.27,5.544,1.262,14.72,104.5039,10.8,12.08,25.74,0,110.2,13.38,11.59,351.3
"2009-10-04 01:38:30",1296483,6.751,24.5,6.686,1.342,13.22,104.5028,10.8,11.96,25.49,0,110.2,13.38,11.59,346.5
"2009-10-04 01:39:00",1296484,5.569,17.72,0.956,0.153,10.43,104.5036,10.8,11.81,25.28,0,110.2,13.41,11.59,339.7
"2009-10-04 01:39:30",1296485,6.383,21.9,6.272,1.238,12.12,104.5039,10.8,11.97,25.52,0,110.2,13.37,11.59,343.9
"2009-10-04 01:40:00",1296486,6.252,20.24,5.055,0.958,11.75,104.5036,10.8,11.93,25.71,0,110.2,13.37,11.59,342.2
"2009-10-04 01:40:30",1296487,7.503,25.84,6.837,1.302,13.5,104.5036,10.8,11.84,25.75,0,110.2,13.37,11.59,347.8
"2009-10-04 01:41:00",1296488,7.202,27.3,6.7,1.329,13.71,104.5039,10.8,11.98,25.78,0,110.2,13.37,11.59,349.3
"2009-10-04 01:41:30",1296489,7.442,27.75,7.346,1.397,15.01,104.5039,10.8,12.11,25.97,0,110.2,13.37,11.59,349.8
"2009-10-04 01:42:00",1296490,6.373,23.18,6.533,1.257,12.61,104.5042,10.8,12,25.62,0,110.2,13.37,11.59,345.2
"2009-10-04 01:42:30",1296491,4.695,16.89,1.495,0.271,10.63,104.5039,10.8,11.84,25.22,0,110.2,13.41,11.59,338.9
"2009-10-04 01:43:00",1296492,5.705,19.94,6.615,1.343,12.7,104.5036,10.8,11.92,25.06,0,110.2,13.37,11.59,341.9
"2009-10-04 01:43:30",1296493,5.562,21.51,6.799,1.096,13.01,104.5039,10.8,11.98,25.19,0,110.2,13.37,11.59,343.5
"2009-10-04 01:44:00",1296494,4.036,12.87,2.025,0.226,11.04,104.5042,10.8,11.81,24.82,0,110.2,13.41,11.59,334.9
"2009-10-04 01:44:30",1296495,5.302,20.3,7.196,1.432,13.73,104.5039,10.8,12,24.96,0,110.2,13.38,11.59,342.3
"2009-10-04 01:45:00",1296496,5.54,19.19,7.099,1.402,14.16,104.5039,10.8,12.09,25.07,0,110.2,13.38,11.59,341.2
"2009-10-04 01:45:30",1296497,5.162,18.71,5.512,1.129,12.82,104.5039,10.8,11.93,24.91,0,110.2,13.38,11.59,340.7
"2009-10-04 01:46:00",1296498,5.287,19.12,6.789,1.293,13.26,104.5039,10.8,11.95,24.92,0,110.2,13.38,11.59,341.1
"2009-10-04 01:46:30",1296499,4.778,16.72,5.933,1.165,11.78,104.5039,10.8,11.95,24.99,0,110.2,13.38,11.59,338.7
"2009-10-04 01:47:00",1296500,4.879,17.36,6.165,1.273,11.67,104.5039,10.8,11.9,24.93,0,110.2,13.38,11.59,339.4